sat.trackr.live / text

‹ back to catalog

STARLINK-30288

NORAD 57698 · 2023-129A

PAYLOAD ACTIVE UNKNOWN

§ Identity

Operator
Country
US
Launch date
2023-08-27
Launch site
AFETR
Launch vehicle
Mass (kg)
RCS (m²)

Purposes: comms

External: N2YO · Heavens-Above · Gunter

§ Orbital elements

Epoch: 2026-09-20T20:07:56.473248Z

Period
94.27 min
Inclination
43.0013°
Eccentricity
0.0001244
Mean motion
15.27575726 rev/d
Perigee alt
482.2 km
Apogee alt
483.9 km
Semi-major
6,861.2 km
B*
4.0835e-6
RAAN
96.1840°
Arg perigee
267.4072°
Mean anomaly
92.6637°
Rev number
17,052

§ Raw data

STARLINK-302881 57698U 23129A   26263.83884807 -.00000150  00000+0  40835-5 0  99982 57698  43.0013  96.1840 0001244 267.4072  92.6637 15.27575726170520

JSON: /api/v1/satellites/57698 · /tle

For live sub-satellite position, see the globe view (requires WebGL).

§ Visibility from observer

Set your observer location to see the next 7 days of passes ≥ 10°. The values pass through the URL so the page stays shareable.

No JS? Fill the form by hand. The geolocation button needs JavaScript.